Change the Weather History Date:

Saturday, November 16, 2013

  Actual Average Record
Temperature  
Mean Temperature 42 °F -  
Max Temperature 57 °F 50 °F 69 °F (2001)
Min Temperature 26 °F 31 °F 18 °F (2014)
Degree Days  
Heating Degree Days 24    
Moisture  
Dew Point 34 °F    
Average Humidity 87    
Maximum Humidity 100    
Minimum Humidity 57    
Precipitation  
Precipitation 0.00 in - - ()
Sea Level Pressure  
Sea Level Pressure 30.32 in    
Wind  
Wind Speed 1 mph (SW)    
Max Wind Speed 12 mph    
Max Gust Speed -    
Visibility 6 miles    
Events Fog    
Averages and records for this station are not official NWS values.
T = Trace of Precipitation, MM = Missing Value Source: NWS Daily Summary

Daily Weather History Graph

Daily Weather History Graph

Search for Another Location

Airport or City:

Trip Planner

Search our weather history database for the weather conditions in past years. The results will help you decide how hot, cold, wet, or windy it might be!

Date:

Astronomy

Nov. 16, 2013 Rise Set
Actual Time 6:39 AM EST 4:31 PM EST
Civil Twilight 6:09 AM EST 5:00 PM EST
Nautical Twilight 5:36 AM EST 5:33 PM EST
Astronomical Twilight 5:03 AM EST 6:06 PM EST
Moon 4:04 PM EST (11/16) 5:32 AM EST (11/16)
Length of Visible Light 10h 51m
Length of Day
9h 52m
Waxing Gibbous, 99% of the Moon is Illuminated
Nov 16
Waxing Gibbous
Nov 17
Full
Nov 25
Last Quarter
Dec 2
New
Dec 9
First Quarter

Hourly Weather History & Observations

Time (EST) Temp. Windchill Dew Point Humidity Pressure Visibility Wind Dir Wind Speed Gust Speed Precip Events Conditions
12:33 AM 30.2 °F - 26.6 °F 86% 30.26 in 1.2 mi Calm Calm - N/A   Clear
12:41 AM 30.2 °F - 26.6 °F 86% 30.26 in 0.5 mi Calm Calm - N/A Fog Light Freezing Fog
12:48 AM 26.6 °F - 26.6 °F 100% 30.25 in 2.0 mi Calm Calm - N/A   Clear
12:53 AM 26.1 °F - 24.1 °F 92% 30.26 in 4.0 mi Calm Calm - N/A   Clear
1:53 AM 30.9 °F - 28.0 °F 89% 30.27 in 8.0 mi Calm Calm - N/A   Clear
2:53 AM 33.1 °F - 30.9 °F 92% 30.28 in 10.0 mi Calm Calm - N/A   Clear
3:53 AM 37.9 °F - 36.0 °F 93% 30.27 in 9.0 mi Calm Calm - N/A   Mostly Cloudy
4:53 AM 37.0 °F - 35.1 °F 93% 30.27 in 8.0 mi Calm Calm - N/A   Mostly Cloudy
5:53 AM 37.9 °F - 36.0 °F 93% 30.30 in 10.0 mi Calm Calm - N/A   Overcast
6:53 AM 39.0 °F - 36.0 °F 89% 30.32 in 8.0 mi Calm Calm - N/A   Mostly Cloudy
7:53 AM 41.0 °F - 39.0 °F 93% 30.34 in 10.0 mi Calm Calm - N/A   Overcast
8:53 AM 45.0 °F - 41.0 °F 86% 30.34 in 10.0 mi Calm Calm - 0.00 in   Overcast
9:53 AM 51.1 °F - 42.1 °F 71% 30.35 in 10.0 mi Calm Calm - 0.00 in   Overcast
10:53 AM 53.1 °F - 41.0 °F 64% 30.34 in 10.0 mi WSW 4.6 mph - N/A   Overcast
11:53 AM 55.9 °F - 41.0 °F 57% 30.33 in 10.0 mi SW 4.6 mph - N/A   Partly Cloudy
12:53 PM 57.0 °F - 42.1 °F 57% 30.30 in 10.0 mi South 9.2 mph - N/A   Clear
1:53 PM 55.0 °F - 42.1 °F 62% 30.32 in 10.0 mi SW 11.5 mph - N/A   Clear
2:53 PM 54.0 °F - 44.1 °F 69% 30.32 in 10.0 mi WSW 6.9 mph - N/A   Clear
3:53 PM 52.0 °F - 43.0 °F 71% 30.35 in 10.0 mi SSW 6.9 mph - N/A   Clear
4:53 PM 46.9 °F - 42.1 °F 83% 30.33 in 10.0 mi SSE 3.5 mph - N/A   Clear
5:53 PM 41.0 °F - 37.9 °F 89% 30.34 in 10.0 mi Calm Calm - N/A   Clear
6:17 PM 39.2 °F - 37.4 °F 93% 30.33 in 2.5 mi Calm Calm - N/A   Clear
6:26 PM 39.2 °F - 37.4 °F 93% 30.33 in 1.8 mi Calm Calm - N/A   Clear
6:39 PM 37.4 °F - 35.6 °F 93% 30.33 in 3.0 mi Calm Calm - N/A   Clear
6:53 PM 37.0 °F - 35.1 °F 93% 30.33 in 1.2 mi Calm Calm - N/A   Clear
7:04 PM 35.6 °F - 33.8 °F 93% 30.33 in 3.0 mi Calm Calm - N/A   Clear
7:53 PM 35.1 °F - 32.0 °F 89% 30.33 in 10.0 mi Calm Calm - N/A   Clear
8:18 PM 33.8 °F - 32.0 °F 93% 30.33 in 2.5 mi Calm Calm - N/A   Scattered Clouds
8:26 PM 35.6 °F - 32.0 °F 87% 30.33 in 3.0 mi Calm Calm - N/A   Mostly Cloudy
8:39 PM 35.6 °F - 32.0 °F 87% 30.33 in 1.8 mi Calm Calm - N/A   Overcast
8:50 PM 33.8 °F - 32.0 °F 93% 30.33 in 0.8 mi Calm Calm - N/A   Mist
8:53 PM 34.0 °F - 32.0 °F 92% 30.33 in 0.2 mi Calm Calm - N/A Fog Fog
9:06 PM 33.8 °F - 32.0 °F 93% 30.32 in 0.5 mi Calm Calm - N/A Fog Fog
9:13 PM 33.8 °F - 30.2 °F 87% 30.32 in 2.0 mi Calm Calm - N/A   Overcast
9:20 PM 33.8 °F - 30.2 °F 87% 30.33 in 0.8 mi Calm Calm - N/A   Mist
9:28 PM 33.8 °F - 30.2 °F 87% 30.32 in 0.2 mi Calm Calm - N/A Fog Fog
9:46 PM 33.8 °F - 30.2 °F 87% 30.32 in 0.5 mi Calm Calm - N/A Fog Fog
9:53 PM 33.1 °F - 30.9 °F 92% 30.32 in 0.8 mi Calm Calm - N/A   Mist
9:56 PM 33.8 °F - 30.2 °F 87% 30.32 in 2.0 mi Calm Calm - N/A   Overcast
10:03 PM 33.8 °F - 32.0 °F 93% 30.32 in 6.0 mi Calm Calm - N/A   Overcast
10:29 PM 33.8 °F - 30.2 °F 87% 30.32 in 8.0 mi Calm Calm - N/A   Partly Cloudy
10:46 PM 33.8 °F 30.8 °F 30.2 °F 87% 30.32 in 6.0 mi NNW 3.5 mph - N/A   Mostly Cloudy
10:53 PM 34.0 °F - 32.0 °F 92% 30.32 in 7.0 mi Calm Calm - N/A   Mostly Cloudy
11:16 PM 33.8 °F - 32.0 °F 93% 30.32 in 6.0 mi Calm Calm - N/A   Mostly Cloudy
11:50 PM 35.6 °F - 35.6 °F 100% 30.31 in 9.0 mi Calm Calm - N/A   Overcast
11:53 PM 37.0 °F - 35.1 °F 93% 30.32 in 9.0 mi Calm Calm - N/A   Overcast